This is the latest recevied weather packets stored in our database for station/object W1RCP. If no packets are shown the sender has not sent any weather packets the latest 10 day(s).
| Time | Temp. | Humidity | Pressure | Rain* | Wind** | Luminosity | Snow |
|---|---|---|---|---|---|---|---|
| 1778087625 | 29.44° C | 45% | 1027.4 hPa | 0 mm | - | 887 W/m² | - |
| 1778087322 | 30° C | 45% | 1027.5 hPa | 0 mm | - | 901 W/m² | - |
| 1778087018 | 29.44° C | 46% | 1027.5 hPa | 0 mm | - | 895 W/m² | - |
| 1778086718 | 29.44° C | 48% | 1027.6 hPa | 0 mm | - | 885 W/m² | - |
| 1778086415 | 29.44° C | 48% | 1027.6 hPa | 0 mm | - | 782 W/m² | - |
| 1778086111 | 29.44° C | 49% | 1027.5 hPa | 0 mm | - | 873 W/m² | - |
| 1778085808 | 29.44° C | 48% | 1027.7 hPa | 0 mm | - | 812 W/m² | - |
| 1778085506 | 28.89° C | 49% | 1027.6 hPa | 0 mm | - | 870 W/m² | - |
| 1778085200 | 29.44° C | 49% | 1027.5 hPa | 0 mm | - | 870 W/m² | - |
| 1778084896 | 28.89° C | 50% | 1027.7 hPa | 0 mm | - | 856 W/m² | - |
| 1778084594 | 28.89° C | 49% | 1027.7 hPa | 0 mm | - | 857 W/m² | - |
| 1778084291 | 28.33° C | 52% | 1027.8 hPa | 0 mm | - | 804 W/m² | - |
| 1778083988 | 28.89° C | 53% | 1027.9 hPa | 0 mm | - | 862 W/m² | - |
| 1778083686 | 28.33° C | 52% | 1027.9 hPa | 0 mm | - | 792 W/m² | - |
| 1778083382 | 28.33° C | 53% | 1027.8 hPa | 0 mm | - | 833 W/m² | - |
| 1778083081 | 28.33° C | 54% | 1027.8 hPa | 0 mm | - | 852 W/m² | - |
| 1778082777 | 28.33° C | 52% | 1027.9 hPa | 0 mm | - | 806 W/m² | - |
| 1778081644 | 27.22° C | 55% | 1027.9 hPa | 0 mm | - | 768 W/m² | - |
| 1778081341 | 27.78° C | 56% | 1028.1 hPa | 0 mm | - | 742 W/m² | - |
| 1778081038 | 27.78° C | 59% | 1027.9 hPa | 0 mm | - | 720 W/m² | - |
| 1778080737 | 27.78° C | 56% | 1027.8 hPa | 0 mm | - | 702 W/m² | - |
| 1778080433 | 27.22° C | 57% | 1027.8 hPa | 0 mm | - | 760 W/m² | - |
| 1778080131 | 27.22° C | 59% | 1027.7 hPa | 0 mm | - | 677 W/m² | - |
| 1778079827 | 27.22° C | 59% | 1027.8 hPa | 0 mm | - | 698 W/m² | - |
| 1778079524 | 27.22° C | 60% | 1027.7 hPa | 0 mm | - | 674 W/m² | - |
* Rain latest hour (hover to see other rain measurements)
** Current wind speed in m/s (hover to see current wind gust speed)